クリステンセン彗星

266P/Christensen (2007)

English version
Home page
Updated on September 5, 2012

---------------------------------------------------------------------

・ プロフィール

符号 266P/2006 U5
発見日 2006年10月27日
発見光度 18.0等
発見者 E. J. Christensen (Catalina Sky Survey)

・ 軌道要素

Epoch 2007 Jan. 20.0 TT = JDT 2454120.5
T 2007 Jan. 18.90327 TT                                 MPC
q   2.3258604            (2000.0)            P               Q
n   0.14862605     Peri.   98.38009     -0.23300867     -0.97246009
a   3.5297133      Node     5.10347     +0.86702646     -0.21021856
e   0.3410625      Incl.    3.43036     +0.44042261     -0.10064557
P   6.63
From 348 observations 2006 Oct. 27-2012 Aug. 28, mean residual 0".75.

・ 星図

・ 光度変化

        m1 = 12.5 + 5 logΔ + 10.0 log r

---------------------------------------------------------------------

軌道要素はM.P.E.C. 2012-R04に掲載されたものです。
星図は StellaNavigator Ver.2.0 for Windows (アストロアーツ 編著 / アスキー出版局刊) で作成したものです。
光度グラフはComet for Windowsで作成したものです。

---------------------------------------------------------------------

Copyright(C) Seiichi Yoshida (comet@aerith.net). All rights reserved.